Queretaro Airport, México

11:01 PM CDT en Septiembre 22, 2017 (GMT -0500)
Queretaro Airport

Tiempo Historia de MMQT - Septiembre, 2017

Change the Weather History Date:

Miércoles, Septiembre 13, 2017

  Actual Average Record
Temperature  
Temperatura media 64 ° F -  
Temperatura máxima 84 ° F 75 ° F 84 ° F (2016)
Temperatura mínima 44 ° F 54 ° F 44 ° F (2017)
Degree Days  
Grados día de calefacción 1    
Growing Degree Days 14 (Base 50)    
Moisture  
Punto de rocío 46 ° F    
Average Humidity 57    
Maximum Humidity 93    
Minimum Humidity 26    
Precipitación  
Precipitación 0.00 pul - - ()
Presión al nivel del mar  
Presión al nivel del mar 30.12 pul    
Viento  
Velocidad del viento 4 mph ()    
Velocidad máxima del viento 12 mph    
Max Gust Speed -    
Visibilidad 8.1 Millas    
Eventos      
Averages and records for this station are not official NWS values.
T = Trace of Precipitation, MM = Missing Value Source: Averaged Metar Reports

Daily Weather History Graph

Daily Weather History Graph

Search for Another Location

Airport or City:

Trip Planner

Search our weather history database for the weather conditions in past years. The results will help you decide how hot, cold, wet, or windy it might be!

Date:

Astronomía

Sep. 13, 2017 Salida Puesta
Hora real 7:27 AM CDT 7:45 PM CDT
Crepúsculo civil 7:05 AM CDT 8:07 PM CDT
Crepúsculo náutico 6:39 AM CDT 8:33 PM CDT
Crepúsculo astronómico 6:13 AM CDT 8:59 PM CDT
Luna 1:02 AM CDT (9/13) 2:30 PM CDT (9/13)
Horas de luz 13h 01m
Horas de luz
12h 17m
Cuarto menguante, 45% of the Moon is Illuminated
Sep 13
Cuarto menguante
Sep 20
Nueva
Sep 27
Cuarto creciente
Oct 5
Luna llena
Oct 12
Cuarto menguante

Hourly Weather History & Observations

Hora (CDT) Temp. Vientos helados Punto de rocío Humedad Presión Visibilidad Wind Dir Velocidad del viento Velocidad de ráfagas Precip Eventos Condiciones
12:45 AM 63 ° F - 51 ° F 55% 29.72 pul 6 mi Este 2.2 mph - -  
12:45 AM 50.0 ° F - 44.6 ° F 82% 30.28 pul 8.0 mi Este 6.9 mph - N/A   Despejado
1:45 AM 50.0 ° F - 46.4 ° F 87% 30.26 pul 8.0 mi Este 4.6 mph - N/A   Despejado
2:45 AM 51.8 ° F - 44.6 ° F 76% 30.25 pul 8.0 mi SSE 4.6 mph - N/A   Despejado
3:40 AM 61 ° F - 51 ° F 62% 29.76 pul 6 mi Oeste 2.2 mph - -  
3:45 AM 48.2 ° F - 44.6 ° F 87% 30.25 pul 8.0 mi Sin viento Sin viento - N/A   Despejado
4:45 AM 46.4 ° F 44.3 ° F 42.8 ° F 87% 30.25 pul 8.0 mi SO 4.6 mph - N/A   Despejado
5:45 AM 44.6 ° F 42.2 ° F 42.8 ° F 93% 30.25 pul 8.0 mi Este 4.6 mph - N/A   Despejado
6:45 AM 46.4 ° F - 42.8 ° F 87% 30.26 pul 8.0 mi Sin viento Sin viento - N/A   Despejado
7:45 AM 44.6 ° F - 41.0 ° F 87% 30.28 pul 8.0 mi Sin viento Sin viento - N/A   Despejado
8:45 AM 50.0 ° F - 44.6 ° F 82% 30.29 pul 8.0 mi Este 4.6 mph - N/A   Despejado
9:45 AM 60 ° F - 49 ° F 59% 29.89 pul 12 mi NO 2.2 mph - -   Nubes dispersas
9:45 AM 55.4 ° F - 46.4 ° F 72% 30.30 pul 8.0 mi SE 4.6 mph - N/A   Despejado
10:45 AM 62.6 ° F - 48.2 ° F 59% 30.30 pul 8.0 mi SSE 4.6 mph - N/A   Despejado
11:40 AM 68.0 ° F - 44.6 ° F 43% 30.29 pul 10.0 mi Sur 6.9 mph - N/A   Despejado
12:45 PM 73.4 ° F - 44.6 ° F 36% 30.26 pul 10.0 mi Este 4.6 mph - N/A   Nubes dispersas
12:48 PM 78 ° F - 53 ° F 31% 29.82 pul 12 mi ENE 6.7 mph - -   Nubes dispersas
1:45 PM 75.2 ° F - 41.0 ° F 29% 30.23 pul 10.0 mi ESE 8.1 mph - N/A   Nubes dispersas
2:45 PM 77.0 ° F - 41.0 ° F 28% 30.20 pul 7.0 mi ESE 11.5 mph - N/A   Nubes dispersas
3:45 PM 83 ° F - 55 ° F 28% 29.69 pul 12 mi Este 2.2 mph - -  
4:45 PM 78.8 ° F - 41.0 ° F 26% 30.16 pul 7.0 mi Sur 5.8 mph - N/A   Nubes dispersas
5:45 PM 78.8 ° F - 42.8 ° F 28% 30.15 pul 7.0 mi Sur 5.8 mph - N/A   Nubes dispersas
6:45 PM 78.8 ° F - 46.4 ° F 32% 30.17 pul 7.0 mi Sur 5.8 mph - N/A   Nubes dispersas
6:50 PM 83 ° F - 56 ° F 29% 29.60 pul 12 mi Este 2.2 mph - -   Nubes dispersas
7:45 PM 73.4 ° F - 44.6 ° F 36% 30.18 pul 7.0 mi NE 5.8 mph - N/A   Nubes dispersas
8:45 PM 68.0 ° F - 44.6 ° F 43% 30.21 pul 7.0 mi ENE 8.1 mph - N/A   Nubes dispersas
9:45 PM 60.8 ° F - 48.2 ° F 63% 30.25 pul 7.0 mi Sur 6.9 mph - N/A   Nubes dispersas
9:50 PM 70 ° F - 54 ° F 46% 29.63 pul 3 mi Este 4.5 mph - -   Nubes dispersas
10:45 PM 59.0 ° F - 46.4 ° F 63% 30.27 pul 7.0 mi SE 8.1 mph - N/A   Despejado
11:45 PM 57.2 ° F - 46.4 ° F 67% 30.28 pul 7.0 mi Este 5.8 mph - N/A   Despejado